Location: Unspecified
(48.1170°N, 0.0000°E)
Time: 19:38:05
(UTC+00:00)

JY1SAT - Pass Details

Date: 19 September 2019
Orbit: 572 x 591 km, 97.7° (Epoch: 16 October)

Event Time Altitude Azimuth Distance (km) Brightness Sun altitude
Exits shadow 20:46:04 15° 26° (NNE) 1,575 ? -26.0°
Drops below altitude 10° 20:47:10 10° 14° (NNE) 1,895 ? -26.2°
Sets 20:49:41 0° 359° (N) 2,802 ? -26.5°
